�N����,����,�~����,�C��,���x,�C��,����,���ϕ���,�ő�u�ԕ���,�ő厞����,���˗�,�I�_���x,�n�����x,�ő啗���N��,DTYPE
"23/11/29","00:10",0.0,2.7,86.7,1014.0,311.0,0.6,2.1,325.1,0.00,0.7,10.2,"00:09:24",1
"23/11/29","00:20",0.0,2.1,87.2,1013.3,289.8,1.0,1.7,312.1,0.00,0.2,9.9,"00:12:42",1
"23/11/29","00:30",0.0,1.8,87.8,1013.8,304.9,1.5,1.7,316.5,0.00,0.0,10.2,"00:28:08",1
"23/11/29","00:40",0.0,1.9,88.4,1013.8,317.2,1.5,2.1,319.7,0.00,0.2,9.8,"00:37:52",1
"23/11/29","00:50",0.0,1.6,88.9,1013.5,299.1,1.5,2.4,319.8,0.00,0.0,10.0,"00:42:32",1
"23/11/29","01:00",0.0,1.4,89.3,1013.5,289.1,1.1,1.4,306.1,0.00,-0.1,10.0,"00:50:08",1
"23/11/29","01:10",0.0,1.5,89.9,1013.5,306.9,1.5,2.0,325.5,0.00,0.1,9.9,"01:00:32",1
"23/11/29","01:20",0.0,1.5,90.2,1013.5,315.7,1.6,2.2,334.3,0.00,0.1,9.8,"01:12:32",1
"23/11/29","01:30",0.0,1.2,90.7,1014.0,290.7,1.3,2.0,320.5,0.00,-0.1,9.7,"01:27:12",1
"23/11/29","01:40",0.0,1.3,91.1,1014.0,304.3,1.5,2.1,334.5,0.00,0.1,9.8,"01:31:12",1
"23/11/29","01:50",0.0,1.1,91.3,1013.8,296.7,1.2,1.7,314.4,0.00,-0.1,9.7,"01:40:16",1
"23/11/29","02:00",0.0,0.9,91.8,1013.5,296.8,1.2,1.7,306.0,0.00,-0.2,9.6,"01:55:20",1
"23/11/29","02:10",0.0,0.9,92.0,1013.5,300.4,1.3,2.2,321.4,0.00,-0.2,9.6,"02:02:56",1
"23/11/29","02:20",0.0,0.7,92.3,1013.5,292.9,1.1,1.6,312.4,0.00,-0.4,9.6,"02:18:08",1
"23/11/29","02:30",0.0,0.7,92.7,1013.8,319.7,1.7,2.5,327.2,0.00,-0.3,9.6,"02:22:32",1
"23/11/29","02:40",0.0,0.8,93.0,1013.3,305.0,1.7,2.4,317.2,0.00,-0.2,9.4,"02:38:08",1
"23/11/29","02:50",0.0,0.8,93.1,1013.3,302.7,1.3,1.9,314.9,0.00,-0.1,9.3,"02:40:32",1
"23/11/29","03:00",0.0,0.9,93.6,1013.3,310.4,1.8,2.4,316.3,0.00,0.0,9.5,"02:50:02",1
"23/11/29","03:10",0.0,1.2,93.6,1013.5,301.3,1.5,2.0,317.3,0.00,0.3,9.3,"03:00:32",1
"23/11/29","03:20",0.0,1.1,93.9,1014.0,293.5,1.5,2.1,318.9,0.00,0.3,9.4,"03:19:12",1
"23/11/29","03:30",0.0,1.5,94.2,1014.2,315.1,2.0,2.6,321.5,0.00,0.7,9.1,"03:24:08",1
"23/11/29","03:40",0.0,1.4,94.3,1014.2,315.8,1.7,2.4,320.3,0.00,0.6,9.2,"03:32:16",1
"23/11/29","03:50",0.0,1.1,94.5,1014.0,289.4,1.0,1.8,319.7,0.00,0.4,8.9,"03:40:16",1
"23/11/29","04:00",0.0,1.0,94.8,1013.5,298.6,1.0,2.0,313.0,0.00,0.3,9.2,"03:58:00",1
"23/11/29","04:10",0.0,0.9,95.1,1014.0,333.7,1.3,2.4,325.0,0.00,0.2,9.4,"04:02:56",1
"23/11/29","04:20",0.0,0.8,95.2,1014.0,316.0,1.7,2.5,310.6,0.00,0.2,9.1,"04:16:24",1
"23/11/29","04:30",0.0,0.6,95.4,1014.2,301.3,1.3,2.0,309.7,0.00,0.0,9.0,"04:21:12",1
"23/11/29","04:40",0.0,0.4,95.6,1014.0,311.8,1.5,2.1,318.8,0.00,-0.2,9.0,"04:38:24",1
"23/11/29","04:50",0.0,0.2,95.8,1014.2,302.3,1.5,2.2,321.4,0.00,-0.3,9.2,"04:41:28",1
"23/11/29","05:00",0.0,0.1,96.0,1014.5,306.9,1.3,2.0,321.2,0.00,-0.4,9.1,"04:52:24",1
"23/11/29","05:10",0.0,0.1,96.2,1014.0,297.8,1.5,2.1,318.1,0.00,-0.4,8.8,"05:04:40",1
"23/11/29","05:20",0.0,0.0,96.3,1014.5,307.2,1.3,1.9,323.6,0.00,-0.5,8.9,"05:19:44",1
"23/11/29","05:30",0.0,0.1,96.4,1014.7,296.2,1.2,2.4,324.9,0.00,-0.4,8.9,"05:27:36",1
"23/11/29","05:40",0.0,0.1,96.5,1014.5,294.2,1.2,2.2,318.1,0.00,-0.3,8.9,"05:32:40",1
"23/11/29","05:50",0.0,0.5,96.7,1014.7,325.0,1.5,3.3,327.3,0.00,0.1,8.9,"05:47:04",1
"23/11/29","06:00",0.0,0.8,96.7,1014.7,317.9,1.5,3.2,319.1,0.00,0.4,8.7,"05:58:16",1
"23/11/29","06:10",0.0,0.7,96.8,1014.5,285.0,1.1,2.4,318.5,0.00,0.3,8.8,"06:09:36",1
"23/11/29","06:20",0.0,0.6,96.8,1014.7,309.3,1.5,2.2,317.8,0.00,0.2,8.8,"06:18:00",1
"23/11/29","06:30",0.0,0.4,97.0,1014.7,299.9,1.5,2.0,322.4,0.00,0.0,8.7,"06:26:32",1
"23/11/29","06:40",0.0,0.4,97.1,1014.7,311.8,1.7,2.1,311.3,0.00,0.0,8.8,"06:39:36",1
"23/11/29","06:50",0.0,0.5,97.2,1014.9,308.0,1.7,2.4,324.9,0.00,0.1,8.7,"06:41:52",1
"23/11/29","07:00",0.0,0.7,97.3,1014.7,316.2,1.8,2.2,325.8,0.00,0.4,8.5,"06:52:24",1
"23/11/29","07:10",0.0,0.9,97.3,1014.9,290.9,1.5,2.2,308.9,0.00,0.6,8.5,"07:02:16",1
"23/11/29","07:20",0.0,1.0,97.4,1014.9,296.1,1.2,1.7,315.1,0.00,0.7,8.5,"07:15:52",1
"23/11/29","07:30",0.0,1.3,97.6,1015.4,305.9,1.3,2.0,319.4,0.02,1.0,8.4,"07:27:06",1
"23/11/29","07:40",0.0,1.7,97.5,1015.4,288.9,1.1,1.6,314.5,0.03,1.4,8.5,"07:30:14",1
"23/11/29","07:50",0.0,2.3,97.5,1015.2,292.1,0.7,1.4,330.1,0.06,2.0,8.7,"07:49:46",1
"23/11/29","08:00",0.0,2.9,97.4,1015.2,319.5,1.0,2.1,324.9,0.08,2.6,8.7,"07:53:04",1
"23/11/29","08:10",0.0,3.5,97.5,1015.6,263.7,0.5,1.4,295.3,0.10,3.2,8.6,"08:07:36",1
"23/11/29","08:20",0.0,4.4,97.2,1015.9,259.3,1.0,1.3,257.8,0.12,4.0,8.2,"08:11:12",1
"23/11/29","08:30",0.0,5.1,96.8,1016.1,256.1,1.3,1.9,256.8,0.14,4.7,8.4,"08:23:52",1
"23/11/29","08:40",0.0,5.5,96.1,1016.4,259.6,1.3,2.1,242.4,0.17,5.0,8.6,"08:38:00",1
"23/11/29","08:50",0.0,6.4,96.2,1016.6,291.0,1.1,2.4,261.2,0.20,5.9,8.4,"08:42:34",1
"23/11/29","09:00",0.0,6.7,95.4,1016.8,297.3,1.0,1.4,271.7,0.20,6.1,8.5,"08:56:24",1
"23/11/29","09:10",0.0,7.1,94.6,1016.8,253.2,1.1,2.0,253.7,0.22,6.3,8.5,"09:01:52",1
"23/11/29","09:20",0.0,7.7,92.7,1016.8,223.5,0.6,1.4,232.4,0.27,6.6,8.5,"09:10:48",1
"23/11/29","09:30",0.0,8.3,89.3,1017.3,215.4,1.0,1.8,232.2,0.28,6.7,8.3,"09:23:40",1
"23/11/29","09:40",0.0,9.1,83.7,1017.1,225.9,1.0,2.0,210.1,0.30,6.5,8.7,"09:32:48",1
"23/11/29","09:50",0.0,10.1,77.0,1017.3,246.4,0.7,1.9,215.9,0.33,6.3,8.7,"09:49:18",1
"23/11/29","10:00",0.0,10.9,72.9,1017.3,248.5,0.8,1.9,231.3,0.33,6.3,8.7,"09:51:58",1
"23/11/29","10:10",0.0,11.8,69.6,1017.5,230.4,1.0,2.1,218.7,0.36,6.5,8.5,"10:05:28",1
"23/11/29","10:20",0.0,12.4,64.9,1017.3,262.3,1.3,3.7,344.5,0.40,6.0,8.4,"10:19:36",1
"23/11/29","10:30",0.0,13.2,62.9,1017.3,286.9,1.5,3.7,334.2,0.45,6.3,8.9,"10:29:52",1
"23/11/29","10:40",0.0,13.0,60.7,1017.3,291.1,2.1,6.5,341.8,0.35,5.6,9.1,"10:33:20",1
"23/11/29","10:50",0.0,12.7,60.7,1016.8,309.7,2.1,4.0,340.7,0.24,5.3,9.1,"10:42:40",1
"23/11/29","11:00",0.0,12.9,60.6,1016.4,257.9,1.3,2.9,243.6,0.21,5.5,9.1,"10:54:38",1
"23/11/29","11:10",0.0,12.7,59.8,1016.4,251.3,1.2,1.9,255.0,0.15,5.1,9.2,"11:01:44",1
"23/11/29","11:20",0.0,12.8,60.6,1015.6,272.9,1.7,2.4,313.2,0.23,5.4,9.3,"11:13:58",1
"23/11/29","11:30",0.0,12.9,59.3,1015.6,283.6,1.5,2.2,257.6,0.22,5.2,9.3,"11:22:08",1
"23/11/29","11:40",0.0,12.9,60.6,1015.9,277.4,1.6,2.5,316.1,0.16,5.5,9.5,"11:31:34",1
"23/11/29","11:50",0.0,12.7,60.3,1015.4,270.4,1.7,3.2,235.9,0.15,5.3,9.3,"11:45:04",1
"23/11/29","12:00",0.0,12.6,60.4,1015.2,245.5,2.1,4.2,239.7,0.19,5.2,9.2,"11:58:44",1
"23/11/29","12:10",0.0,12.8,60.4,1014.7,254.1,2.1,4.7,230.0,0.17,5.4,9.5,"12:01:52",1
"23/11/29","12:20",0.0,13.0,58.9,1014.7,255.0,2.3,5.2,238.0,0.23,5.2,9.5,"12:15:02",1
"23/11/29","12:30",0.0,13.4,57.9,1014.7,267.2,2.3,5.7,241.6,0.21,5.3,9.7,"12:22:46",1
"23/11/29","12:40",0.0,13.4,57.0,1014.5,250.4,2.1,4.9,256.9,0.17,5.1,9.5,"12:32:32",1
"23/11/29","12:50",0.0,13.4,56.2,1014.5,256.8,2.8,6.7,245.6,0.19,4.9,9.8,"12:43:44",1
"23/11/29","13:00",0.0,13.4,55.5,1014.2,268.4,1.8,3.3,241.6,0.14,4.7,9.9,"12:52:42",1
"23/11/29","13:10",0.0,13.2,56.7,1014.7,250.4,2.8,6.4,208.4,0.12,4.8,10.0,"13:04:24",1
"23/11/29","13:20",0.0,13.4,56.1,1014.0,239.3,3.0,5.8,228.3,0.16,4.9,9.8,"13:16:08",1
"23/11/29","13:30",0.0,13.4,57.0,1014.2,253.6,2.1,5.2,239.7,0.12,5.1,9.9,"13:24:22",1
"23/11/29","13:40",0.0,13.5,56.0,1014.5,266.7,1.6,3.5,246.4,0.14,4.9,9.9,"13:35:30",1
"23/11/29","13:50",0.0,14.1,55.6,1014.2,258.3,2.5,7.2,239.2,0.31,5.4,10.1,"13:42:40",1
"23/11/29","14:00",0.0,14.4,53.7,1014.0,277.7,2.3,4.9,231.4,0.30,5.2,10.0,"13:58:16",1
"23/11/29","14:10",0.0,14.0,53.5,1014.0,283.9,2.6,5.5,236.3,0.16,4.8,10.0,"14:05:10",1
"23/11/29","14:20",0.0,13.8,53.6,1014.0,278.3,2.1,4.0,233.0,0.14,4.6,10.1,"14:18:04",1
"23/11/29","14:30",0.0,13.7,53.6,1014.0,274.8,1.6,4.5,344.8,0.12,4.5,10.1,"14:23:14",1
"23/11/29","14:40",0.0,13.5,53.5,1014.0,286.0,2.0,3.2,304.7,0.10,4.3,10.2,"14:38:04",1
"23/11/29","14:50",0.0,13.2,54.5,1014.2,295.6,1.8,3.6,322.4,0.06,4.3,10.3,"14:47:14",1
"23/11/29","15:00",0.0,12.9,55.9,1014.0,296.9,2.0,4.1,319.5,0.04,4.4,10.3,"14:58:26",1
"23/11/29","15:10",0.0,12.8,56.4,1014.2,311.5,2.2,4.8,335.7,0.03,4.4,10.1,"15:01:20",1
"23/11/29","15:20",0.0,12.7,57.3,1014.5,311.4,1.8,4.5,316.4,0.03,4.5,10.4,"15:14:30",1
"23/11/29","15:30",0.0,12.7,57.8,1014.5,317.2,2.3,4.1,347.2,0.03,4.6,10.2,"15:24:10",1
"23/11/29","15:40",0.0,12.5,58.6,1014.2,320.8,2.1,3.3,328.4,0.03,4.7,10.3,"15:37:10",1
"23/11/29","15:50",0.0,12.4,58.7,1014.5,310.4,1.7,3.2,344.3,0.02,4.6,10.5,"15:44:48",1
"23/11/29","16:00",0.0,12.3,58.1,1014.7,302.9,2.1,3.9,331.2,0.01,4.3,10.5,"15:56:38",1
"23/11/29","16:10",0.0,12.2,58.9,1014.7,297.1,1.7,2.9,331.7,0.01,4.4,10.5,"16:00:36",1
"23/11/29","16:20",0.0,12.1,59.0,1014.7,309.6,2.2,3.6,313.4,0.01,4.4,10.5,"16:19:56",1
"23/11/29","16:30",0.0,11.9,59.8,1014.7,315.2,2.1,4.3,333.0,0.00,4.4,10.4,"16:20:10",1
"23/11/29","16:40",0.0,11.8,60.5,1014.5,306.8,2.1,3.3,337.5,0.00,4.5,10.4,"16:37:38",1
"23/11/29","16:50",0.0,11.6,61.1,1014.9,293.7,2.0,3.1,275.8,0.00,4.4,10.4,"16:45:40",1
"23/11/29","17:00",0.0,11.4,62.2,1014.7,295.0,1.7,2.6,283.1,0.00,4.5,10.5,"16:53:18",1
"23/11/29","17:10",0.0,11.0,63.1,1014.9,294.2,1.5,2.6,314.4,0.00,4.3,10.5,"17:04:56",1
"23/11/29","17:20",0.0,10.8,63.8,1014.7,292.3,1.8,2.7,332.7,0.00,4.3,10.3,"17:10:08",1
"23/11/29","17:30",0.0,10.4,65.3,1014.7,316.4,1.6,1.9,316.0,0.00,4.2,10.4,"17:21:52",1
"23/11/29","17:40",0.0,9.9,67.9,1014.7,315.5,1.6,2.4,320.8,0.00,4.3,10.5,"17:32:16",1
"23/11/29","17:50",0.0,9.6,69.6,1014.7,300.7,1.7,2.7,333.9,0.00,4.4,10.3,"17:40:40",1
"23/11/29","18:00",0.0,9.2,70.8,1014.9,296.8,1.5,2.4,310.9,0.00,4.2,10.5,"17:58:48",1
"23/11/29","18:10",0.0,9.3,71.2,1014.7,289.2,1.7,3.2,306.3,0.00,4.4,10.4,"18:08:40",1
"23/11/29","18:20",0.0,9.5,70.5,1014.5,307.7,2.0,3.2,328.2,0.00,4.4,10.5,"18:13:52",1
"23/11/29","18:30",0.0,9.1,71.2,1014.9,299.3,1.8,3.2,332.6,0.00,4.2,10.4,"18:29:12",1
"23/11/29","18:40",0.0,8.6,72.3,1015.2,304.6,2.1,3.2,327.3,0.00,3.9,10.3,"18:33:12",1
"23/11/29","18:50",0.0,8.2,73.5,1014.7,302.4,2.2,3.2,329.6,0.00,3.8,10.4,"18:47:52",1
"23/11/29","19:00",0.0,8.1,74.3,1014.9,303.0,2.2,3.1,307.2,0.00,3.8,10.1,"18:53:52",1
"23/11/29","19:10",0.0,7.9,75.1,1014.7,303.1,2.2,2.9,322.6,0.00,3.8,10.2,"19:05:12",1
"23/11/29","19:20",0.0,7.8,76.0,1014.9,304.5,2.3,3.2,322.8,0.00,3.9,10.3,"19:12:40",1
"23/11/29","19:30",0.0,7.5,77.0,1014.7,301.5,2.3,3.1,318.9,0.00,3.8,10.1,"19:25:20",1
"23/11/29","19:40",0.0,6.9,77.6,1014.2,304.2,1.8,2.8,318.0,0.00,3.3,10.0,"19:30:08",1
"23/11/29","19:50",0.0,6.6,78.7,1014.7,298.5,2.0,2.6,324.8,0.00,3.2,10.2,"19:42:24",1
"23/11/29","20:00",0.0,6.5,79.7,1014.7,294.1,2.0,2.9,306.5,0.00,3.3,10.1,"19:52:48",1
"23/11/29","20:10",0.0,6.3,81.0,1014.5,299.0,2.1,3.3,318.2,0.00,3.3,9.9,"20:00:08",1
"23/11/29","20:20",0.0,6.2,82.6,1014.5,313.8,2.3,2.9,316.8,0.00,3.5,10.0,"20:16:48",1
"23/11/29","20:30",0.0,5.7,83.4,1014.7,302.2,1.6,2.4,315.8,0.00,3.2,9.9,"20:20:08",1
"23/11/29","20:40",0.0,5.5,84.5,1014.2,317.7,1.2,1.9,313.6,0.00,3.1,10.1,"20:31:24",1
"23/11/29","20:50",0.0,5.1,85.2,1014.5,316.8,1.6,2.4,327.8,0.00,2.9,9.8,"20:42:48",1
"23/11/29","21:00",0.0,4.9,86.1,1014.0,312.6,1.5,1.8,297.1,0.00,2.8,9.8,"20:55:24",1
"23/11/29","21:10",0.0,4.6,86.8,1014.0,292.1,1.3,2.1,299.2,0.00,2.6,9.9,"21:00:50",1
"23/11/29","21:20",0.0,4.7,87.6,1014.0,319.9,1.6,2.1,312.7,0.00,2.9,9.7,"21:16:14",1
"23/11/29","21:30",0.0,4.9,88.2,1014.2,312.9,1.7,2.1,309.2,0.00,3.2,9.8,"21:22:36",1
"23/11/29","21:40",0.0,4.9,88.7,1014.0,313.8,1.6,2.1,323.1,0.00,3.2,9.7,"21:33:04",1
"23/11/29","21:50",0.0,5.0,89.3,1013.5,301.3,2.0,2.5,322.9,0.00,3.4,9.6,"21:49:06",1
"23/11/29","22:00",0.0,5.3,89.5,1013.3,297.5,1.8,2.8,308.0,0.00,3.8,9.7,"21:50:28",1
"23/11/29","22:10",0.0,5.4,89.9,1013.8,290.0,1.6,2.5,260.9,0.00,3.9,9.7,"22:09:26",1
"23/11/29","22:20",0.0,5.7,90.1,1013.5,291.0,1.7,2.5,306.3,0.00,4.2,9.7,"22:12:24",1
"23/11/29","22:30",0.0,6.1,90.0,1013.5,297.8,2.1,2.9,317.3,0.00,4.6,9.6,"22:29:12",1
"23/11/29","22:40",0.0,6.3,89.9,1013.8,293.8,1.8,2.5,320.1,0.00,4.8,9.7,"22:31:52",1
"23/11/29","22:50",0.0,6.5,89.7,1013.8,285.2,2.0,2.4,296.7,0.00,5.0,9.5,"22:40:16",1
"23/11/29","23:00",0.0,6.6,89.3,1013.8,285.9,1.7,2.8,314.2,0.00,5.0,9.3,"22:58:40",1
"23/11/29","23:10",0.0,6.6,89.1,1014.0,304.1,2.1,3.2,321.3,0.00,5.0,9.4,"23:02:00",1
"23/11/29","23:20",0.0,6.5,88.7,1013.8,297.7,1.8,2.4,312.1,0.00,4.8,9.5,"23:10:08",1
"23/11/29","23:30",0.0,6.2,88.5,1013.8,296.9,1.7,2.9,314.8,0.00,4.5,9.6,"23:28:56",1
"23/11/29","23:40",0.0,6.0,88.4,1013.5,303.3,1.6,2.2,317.2,0.00,4.3,9.6,"23:38:16",1
"23/11/29","23:50",0.0,5.8,88.4,1013.5,296.5,1.8,2.2,304.4,0.00,4.1,9.5,"23:46:48",1
"23/11/29","24:00",0.0,6.1,88.4,1013.0,291.2,2.0,3.2,302.0,0.00,4.4,9.6,"23:51:36",1
